loading
|
Showing default

OPS 9342 (IDSCS 20), 3285

Orbit data source: Space-Track

OPS 9342 (IDSCS 20), 3285 is a payload satellite owned by SAMSO (US) that was launched on Thu, 13 Jun 1968 UTC via a TITAN IIIC launch vehicle from the Air Force Eastern Test Range (AFETR). Payloads include a variety of satellites, spacecraft, and rockets equipped with specific instruments for various scientific and technological missions. These include communications satellites like Starlink; space stations such as the ISS; scientific satellites like the Hubble; Earth observation satellites from companies like Planet Labs, Umbra, and HawkEye 360; GPS; miniature CubeSats for education and research; and military/defense satellites.

Loading next visibility...
Loading greatness...
OPS 9342 (IDSCS 20) details
Identifier
3285, 1968-050B
Orbit
Active
Last TLE update11 hours ago
Origin
Flag of USSAMSO (US)
ManufacturerPhilco-Ford
MissionNon-operational Defense Communications
Bus & MotorIDCSP, Unknown motor
Mass45 kg wet, 45 kg dry
Launch date (UTC)
1968-06-13 (56 years ago)
Launch vehicle
TITAN IIIC
Launch site
Air Force Eastern Test Range (AFETR)
Object type
Payload
Rocket body
Debris
Shape & HBRPoly, 0.9 m
Radar Cross Section0.926 m², Medium (>0.1 m² and < 1m²)

Expand to show TLE details & history

TLE from 11 hours ago
0 OPS 9342 (IDSCS 20)
1  3285U 68050B   24284.55744767 -.00000046  00000-0  00000+0 0  9992
2  3285   5.9767  57.0195 0016793 134.5509 197.4663  1.07818420221534
Epoch: 2024-10-10T13:22Z
Definitive object data (Epoch: 2024-10-10T13:22:43.478Z)
Latitude-2.80723°
Longitude168.75485°
Altitude33,859.906 km
Speed3.145 km/s
True Right ascension01h 56m 18s
True Declination-2° 48' 15"
Sunlit
Object was in daylight at TLE epoch
Predictive object data (real-time)
Latitude3.63403°
Longitude-20.67479°
Altitude33,727.354 km
Speed3.155 km/s
Apparent Right ascension12h 50m 48s
Apparent Declination-2° 15' 03"
Sunlit
Object is in daylight
Predictive observer data (real-time)
Local Sidereal Time18:14:55
Azimuth262.491° W
Elevation5.411°
Doppler factor1
Orbital elements
Apogee33,863.949 km
Perigee33,729.019 km
Semi-major axis40,174.621 km
Eccentricity0.0016793
Inclination5.9767°
RAAN57.0195°
Arg. of periapsis134.5509°
True anomaly197.40866°
Mean anomaly197.4663°
Eccentric anomaly197.43747°
Mean motion0.26954 °/min
BSTARUnknown
Period1335.63 mins
No data available

OPS 9342 (IDSCS 20) Visibility forecast

Observer location: 39.9160978°, -105.1181434

OPS 9342 (IDSCS 20) is not visible in the next 10 days
Span
Click to sort rows by Start time (UTC) header in descending order
Start Az.
Max El. time (UTC)
Max El. Az.
Max El.
End time (UTC)
End Az.